Montoursville, PA

9:50 AM EDT on September 30, 2016 (GMT -0400)
Williamsport Rgnl

Weather History for KIPT - June, 2013

Change the Weather History Date:

Saturday, June 22, 2013

  Actual Average Record
Temperature  
Mean Temperature 73 °F 70 °F  
Max Temperature 86 °F 81 °F 97 °F (1988)
Min Temperature 60 °F 60 °F 40 °F (1940)
Degree Days  
Heating Degree Days 0 1  
Month to date heating degree days 9 36  
Since 1 June heating degree days 9 36  
Since 1 July heating degree days 5669 5994  
Cooling Degree Days 8 6  
Month to date cooling degree days 77 94  
Year to date cooling degree days 148 137  
Since 1 June cooling degree days 77 94  
Growing Degree Days 23 (Base 50)    
Moisture  
Dew Point 60 °F    
Average Humidity 66    
Maximum Humidity 84    
Minimum Humidity 48    
Precipitation  
Precipitation 0.00 in 0.13 in 8.66 in (1972)
Month to date precipitation 2.86 2.87  
Year to date precipitation 15.43 17.78  
Sea Level Pressure  
Sea Level Pressure 30.16 in    
Wind  
Wind Speed 5 mph (ESE)    
Max Wind Speed 14 mph    
Max Gust Speed 18 mph    
Visibility 10 miles    
Events      
T = Trace of Precipitation, MM = Missing Value Source: NWS Daily Summary

Daily Weather History Graph

Daily Weather History Graph

Search for Another Location

Airport or City:

Trip Planner

Search our weather history database for the weather conditions in past years. The results will help you decide how hot, cold, wet, or windy it might be!

Date:

Astronomy

Jun. 22, 2013 Rise Set
Actual Time 5:35 AM EDT 8:44 PM EDT
Civil Twilight 5:01 AM EDT 9:18 PM EDT
Nautical Twilight 4:17 AM EDT 10:01 PM EDT
Astronomical Twilight 3:26 AM EDT 10:53 PM EDT
Moon 7:56 PM EDT (6/22) 4:46 AM EDT (6/22)
Length of Visible Light 16h 16m
Length of Day
15h 09m
Waxing Gibbous, 99% of the Moon is Illuminated
Jun 22
Waxing Gibbous
Jun 23
Full
Jun 30
Last Quarter
Jul 8
New
Jul 15
First Quarter

Hourly Weather History & Observations

Time (EDT) Temp. Heat Index Dew Point Humidity Pressure Visibility Wind Dir Wind Speed Gust Speed Precip Events Conditions
12:54 AM 70.0 °F - 55.9 °F 61% 30.22 in 10.0 mi East 3.5 mph - N/A   Scattered Clouds
1:54 AM 66.0 °F - 57.0 °F 73% 30.22 in 10.0 mi Calm Calm - N/A   Clear
2:54 AM 64.9 °F - 57.9 °F 78% 30.21 in 10.0 mi Calm Calm - N/A   Clear
3:54 AM 63.0 °F - 55.9 °F 78% 30.21 in 10.0 mi Calm Calm - N/A   Clear
4:54 AM 61.0 °F - 55.0 °F 81% 30.20 in 10.0 mi Calm Calm - N/A   Clear
5:54 AM 60.1 °F - 55.0 °F 83% 30.20 in 10.0 mi ESE 3.5 mph - N/A   Clear
6:54 AM 62.1 °F - 55.9 °F 80% 30.20 in 10.0 mi East 4.6 mph - N/A   Scattered Clouds
7:54 AM 66.0 °F - 55.9 °F 70% 30.20 in 10.0 mi ESE 5.8 mph - N/A   Clear
8:54 AM 70.0 °F - 55.9 °F 61% 30.22 in 10.0 mi ENE 3.5 mph - N/A   Clear
9:54 AM 71.1 °F - 55.9 °F 59% 30.22 in 10.0 mi Variable 3.5 mph - N/A   Mostly Cloudy
10:54 AM 75.0 °F - 57.9 °F 55% 30.21 in 10.0 mi East 4.6 mph - N/A   Scattered Clouds
11:54 AM 78.1 °F - 61.0 °F 56% 30.21 in - East 4.6 mph - N/A   Clear
12:54 PM 81.0 °F 81.9 °F 62.1 °F 52% 30.19 in 10.0 mi Variable 3.5 mph - 0.13 in   Clear
1:54 PM 82.9 °F 83.7 °F 62.1 °F 49% 30.17 in 10.0 mi Variable 6.9 mph - N/A   Clear
2:54 PM 84.0 °F 84.5 °F 62.1 °F 47% 30.14 in 10.0 mi Variable 5.8 mph - N/A   Clear
3:54 PM 84.0 °F 84.9 °F 63.0 °F 49% 30.13 in 10.0 mi South 10.4 mph - N/A   Partly Cloudy
4:54 PM 84.0 °F 84.9 °F 63.0 °F 49% 30.11 in 10.0 mi South 10.4 mph 18.4 mph N/A   Partly Cloudy
5:54 PM 84.0 °F 85.4 °F 64.0 °F 51% 30.08 in - North - - 0.02 in   Partly Cloudy
6:54 PM 82.9 °F 84.4 °F 64.0 °F 53% 30.06 in - North - - 0.11 in   Clear
7:54 PM 82.0 °F 83.0 °F 62.1 °F 51% 30.06 in 10.0 mi South 13.8 mph - N/A   Clear
8:54 PM 80.1 °F 81.2 °F 62.1 °F 54% 30.07 in 10.0 mi North - - N/A   Clear
9:54 PM 80.1 °F 81.2 °F 62.1 °F 54% 30.09 in 10.0 mi North - - N/A   Clear
10:54 PM 75.0 °F - 64.0 °F 69% 30.12 in 10.0 mi North - - N/A   Overcast
11:54 PM 72.0 °F - 64.0 °F 76% 30.13 in 10.0 mi North - - N/A   Mostly Cloudy